Weather History for Cherry Point, NC

Change the Weather History Date:

Wednesday, January 1, 2014

  Actual Average Record
Temperature  
Mean Temperature 44 °F -  
Max Temperature 54 °F 55 °F 72 °F (2007)
Min Temperature 33 °F 34 °F 21 °F (2001)
Degree Days  
Heating Degree Days 22    
Moisture  
Dew Point 35 °F    
Average Humidity 74    
Maximum Humidity 89    
Minimum Humidity 41    
Precipitation  
Precipitation 0.02 in - - ()
Sea Level Pressure  
Sea Level Pressure 30.32 in    
Wind  
Wind Speed 1 mph (NE)    
Max Wind Speed 6 mph    
Max Gust Speed -    
Visibility 9 miles    
Events Rain    
Averages and records for this station are not official NWS values.
T = Trace of Precipitation, MM = Missing Value Source: NWS Daily Summary

Daily Weather History Graph

Daily Weather History Graph

Search for Another Location

Airport:

Trip Planner

Search our weather history database for the weather conditions in past years. The results will help you decide how hot, cold, wet, or windy it might be!

Date:

Astronomy

Jan. 01, 2014 Rise Set
Actual Time 7:15 AM EST 5:07 PM EST
Civil Twilight 6:47 AM EST 5:35 PM EST
Nautical Twilight 6:15 AM EST 6:06 PM EST
Astronomical Twilight 5:45 AM EST 6:37 PM EST
Moon 7:06 AM EST (1/1) 5:46 PM EST (1/1)
Length of Visible Light 10h 47m
Length of Day
9h 51m
Waxing Crescent, 0% of the Moon is Illuminated
Jan 1
Waxing Crescent
Jan 7
First Quarter
Jan 15
Full
Jan 24
Last Quarter
Jan 30
New

Hourly Weather History & Observations

Time (EST) Temp. Dew Point Humidity Pressure Visibility Wind Dir Wind Speed Gust Speed Precip Events Conditions
12:54 AM 34.0 °F 30.9 °F 89% 30.36 in 7.0 mi Calm Calm - N/A   Scattered Clouds
1:54 AM 36.0 °F 30.9 °F 82% 30.36 in 7.0 mi Calm Calm - N/A   Clear
2:54 AM 33.1 °F 30.0 °F 89% 30.38 in 7.0 mi Calm Calm - N/A   Clear
3:54 AM 33.1 °F 30.0 °F 89% 30.38 in 7.0 mi Calm Calm - N/A   Clear
4:54 AM 33.1 °F 30.0 °F 89% 30.39 in 7.0 mi Calm Calm - N/A   Clear
5:54 AM 33.1 °F 30.0 °F 89% 30.38 in 7.0 mi Calm Calm - N/A   Clear
6:54 AM 34.0 °F 30.0 °F 85% 30.39 in 7.0 mi Calm Calm - N/A   Clear
7:54 AM 37.0 °F 32.0 °F 82% 30.42 in 10.0 mi Calm Calm - N/A   Clear
8:54 AM 39.0 °F 34.0 °F 82% 30.42 in 10.0 mi Calm Calm - N/A   Clear
9:54 AM 43.0 °F 37.0 °F 80% 30.43 in - Calm Calm - N/A   Clear
10:54 AM 46.9 °F 37.9 °F 71% 30.42 in 10.0 mi East 3.5 mph - N/A   Clear
11:54 AM 51.1 °F 35.1 °F 54% 30.38 in - East 3.5 mph - N/A   Clear
12:54 PM 54.0 °F 30.9 °F 41% 30.34 in 10.0 mi Calm Calm - N/A   Clear
1:54 PM 53.1 °F 36.0 °F 52% 30.32 in 10.0 mi NNE 4.6 mph - N/A   Overcast
2:54 PM 53.1 °F 36.0 °F 52% 30.30 in 10.0 mi NNE 5.8 mph - N/A   Scattered Clouds
3:54 PM 52.0 °F 36.0 °F 54% 30.27 in 10.0 mi ENE 5.8 mph - N/A   Partly Cloudy
4:54 PM 51.1 °F 36.0 °F 56% 30.27 in 10.0 mi ENE 3.5 mph - N/A   Overcast
5:54 PM 50.0 °F 39.0 °F 66% 30.26 in 10.0 mi North 3.5 mph - N/A   Overcast
6:54 PM 48.9 °F 42.1 °F 77% 30.25 in 10.0 mi ENE 3.5 mph - 0.00 in   Overcast
7:54 PM 48.9 °F 39.0 °F 69% 30.24 in 10.0 mi NNE 3.5 mph - N/A   Overcast
8:54 PM 48.0 °F 41.0 °F 77% 30.23 in 10.0 mi East 3.5 mph - N/A   Overcast
9:54 PM 48.0 °F 42.1 °F 80% 30.20 in 10.0 mi NE 3.5 mph - N/A   Overcast
10:54 PM 48.0 °F 41.0 °F 77% 30.17 in 10.0 mi Calm Calm - N/A   Overcast
11:54 PM 46.9 °F 42.1 °F 83% 30.16 in 6.0 mi NNW 4.6 mph - 0.02 in Rain Rain